• In United Kingdom
  • List of Countries
  • For 7 days
  • Water Temperature
  • Satellite Maps
  • Weather Map
  • Weather Widgets
  • user-avatar
    Login

    Hourly Weather Palanca

    Today, 16 July, Monday

    Time Temperature Precipitation Wind Pressure Humidity
    00:00 +17°C° 0 mm 3 mps 740 mmHg 91%
    01:00 +16°C° 0 mm 3 mps 740 mmHg 93%
    02:00 +16°C° 0 mm 3 mps 740 mmHg 95%
    03:00 +16°C° 0 mm 3 mps 740 mmHg 95%
    04:00 +16°C° 0 mm 3 mps 740 mmHg 96%
    05:00 +14°C° 0 mm 3 mps 740 mmHg 96%
    06:00 +16°C° 0 mm 3 mps 740 mmHg 92%
    07:00 +18°C° 0 mm 4 mps 740 mmHg 87%
    08:00 +19°C° 0 mm 5 mps 740 mmHg 82%
    09:00 +20°C° 0 mm 5 mps 740 mmHg 79%
    10:00 +20°C° 0 mm 5 mps 740 mmHg 76%
    11:00 +21°C° 0 mm 5 mps 740 mmHg 72%
    12:00 +22°C° 0.1 mm 5 mps 740 mmHg 67%
    13:00 +25°C° 0.1 mm 5 mps 739 mmHg 63%
    14:00 +26°C° 0.1 mm 5 mps 739 mmHg 58%
    15:00 +26°C° 0.1 mm 5 mps 739 mmHg 59%
    16:00 +25°C° 0.1 mm 5 mps 739 mmHg 60%
    17:00 +25°C° 0.1 mm 4 mps 739 mmHg 61%
    18:00 +23°C° 0 mm 4 mps 739 mmHg 67%
    19:00 +22°C° 0 mm 3 mps 739 mmHg 73%
    20:00 +20°C° 0 mm 3 mps 739 mmHg 79%
    21:00 +19°C° 0 mm 2 mps 738 mmHg 82%
    22:00 +18°C° 0 mm 2 mps 738 mmHg 86%
    23:00 +18°C° 0 mm 2 mps 738 mmHg 89%

    Tomorrow, 17 July, Tuesday

    Time Temperature Precipitation Wind Pressure Humidity
    00:00 +17°C° 0 mm 2 mps 738 mmHg 90%
    01:00 +17°C° 0 mm 2 mps 738 mmHg 91%
    02:00 +17°C° 0 mm 2 mps 738 mmHg 92%
    03:00 +17°C° 0 mm 2 mps 738 mmHg 92%
    04:00 +16°C° 0 mm 2 mps 738 mmHg 92%
    05:00 +16°C° 0 mm 2 mps 737 mmHg 92%
    06:00 +18°C° 0.1 mm 3 mps 737 mmHg 86%
    07:00 +20°C° 0.1 mm 4 mps 737 mmHg 80%
    08:00 +21°C° 0.1 mm 5 mps 737 mmHg 74%
    09:00 +22°C° 0.1 mm 5 mps 737 mmHg 70%
    10:00 +24°C° 0.1 mm 6 mps 737 mmHg 66%
    11:00 +26°C° 0.1 mm 6 mps 737 mmHg 63%
    12:00 +26°C° 0.6 mm 6 mps 736 mmHg 63%
    13:00 +26°C° 0.6 mm 6 mps 736 mmHg 62%
    14:00 +26°C° 0.6 mm 6 mps 736 mmHg 62%
    15:00 +26°C° 0.1 mm 6 mps 736 mmHg 62%
    16:00 +26°C° 0.1 mm 6 mps 736 mmHg 63%
    17:00 +26°C° 0.1 mm 5 mps 736 mmHg 63%
    18:00 +25°C° 0.3 mm 5 mps 735 mmHg 69%
    19:00 +22°C° 0.3 mm 4 mps 735 mmHg 76%
    20:00 +21°C° 0.3 mm 3 mps 735 mmHg 82%
    21:00 +20°C° 0.6 mm 4 mps 735 mmHg 84%
    22:00 +20°C° 0.6 mm 4 mps 735 mmHg 87%
    23:00 +19°C° 0.6 mm 5 mps 734 mmHg 89%

    Day after tomorrow, 18 July, Wednesday

    Time Temperature Precipitation Wind Pressure Humidity
    00:00 +19°C° 0.9 mm 6 mps 734 mmHg 89%
    01:00 +18°C° 0.9 mm 7 mps 733 mmHg 90%
    02:00 +18°C° 0.9 mm 8 mps 733 mmHg 90%
    03:00 +18°C° 1.4 mm 8 mps 733 mmHg 90%
    04:00 +18°C° 1.4 mm 8 mps 732 mmHg 90%
    05:00 +18°C° 1.4 mm 8 mps 732 mmHg 90%
    06:00 +18°C° 0.5 mm 8 mps 732 mmHg 90%
    07:00 +18°C° 0.5 mm 8 mps 732 mmHg 90%
    08:00 +20°C° 0.5 mm 8 mps 732 mmHg 90%
    09:00 +20°C° 0.3 mm 7 mps 733 mmHg 89%
    10:00 +20°C° 0.3 mm 7 mps 733 mmHg 89%
    11:00 +20°C° 0.3 mm 7 mps 733 mmHg 88%
    12:00 +21°C° 0.3 mm 6 mps 733 mmHg 86%
    13:00 +22°C° 0.3 mm 6 mps 734 mmHg 84%
    14:00 +22°C° 0.3 mm 6 mps 734 mmHg 82%
    15:00 +23°C° 0.4 mm 6 mps 734 mmHg 80%
    16:00 +23°C° 0.4 mm 5 mps 734 mmHg 78%
    17:00 +25°C° 0.4 mm 5 mps 734 mmHg 76%
    18:00 +23°C° 0.5 mm 4 mps 734 mmHg 80%
    19:00 +22°C° 0.5 mm 4 mps 735 mmHg 84%
    20:00 +21°C° 0.5 mm 3 mps 735 mmHg 88%
    21:00 +21°C° 0.1 mm 2 mps 735 mmHg 89%
    22:00 +20°C° 0.1 mm 2 mps 735 mmHg 90%
    23:00 +20°C° 0.1 mm 2 mps 735 mmHg 91%

    19 July, Thursday

    Time Temperature Precipitation Wind Pressure Humidity
    00:00 +19°C° 0 mm 2 mps 735 mmHg 92%
    01:00 +19°C° 0 mm 2 mps 735 mmHg 92%
    02:00 +19°C° 0 mm 2 mps 735 mmHg 93%
    03:00 +19°C° 0 mm 2 mps 736 mmHg 94%
    04:00 +18°C° 0 mm 2 mps 736 mmHg 95%
    05:00 +18°C° 0 mm 2 mps 736 mmHg 95%
    06:00 +20°C° 0 mm 3 mps 736 mmHg 91%
    07:00 +21°C° 0 mm 4 mps 737 mmHg 87%
    08:00 +23°C° 0 mm 4 mps 737 mmHg 82%
    09:00 +23°C° 0.4 mm 5 mps 737 mmHg 80%
    10:00 +25°C° 0.4 mm 5 mps 737 mmHg 78%
    11:00 +26°C° 0.4 mm 6 mps 738 mmHg 76%
    12:00 +26°C° 0.9 mm 6 mps 738 mmHg 74%
    13:00 +27°C° 0.9 mm 6 mps 738 mmHg 72%
    14:00 +28°C° 0.9 mm 6 mps 737 mmHg 70%
    15:00 +27°C° 0.7 mm 6 mps 738 mmHg 71%
    16:00 +27°C° 0.7 mm 6 mps 738 mmHg 71%
    17:00 +27°C° 0.7 mm 7 mps 738 mmHg 72%
    18:00 +26°C° 0.2 mm 6 mps 739 mmHg 76%
    19:00 +24°C° 0.2 mm 6 mps 739 mmHg 81%
    20:00 +22°C° 0.2 mm 6 mps 739 mmHg 86%
    21:00 +22°C° 0.1 mm 6 mps 739 mmHg 88%
    22:00 +21°C° 0.1 mm 6 mps 740 mmHg 89%
    23:00 +21°C° 0.1 mm 6 mps 740 mmHg 90%

    20 July, Friday

    Time Temperature Precipitation Wind Pressure Humidity
    00:00 +20°C° 0 mm 6 mps 740 mmHg 91%
    01:00 +20°C° 0 mm 5 mps 740 mmHg 91%
    02:00 +20°C° 0 mm 5 mps 740 mmHg 92%
    03:00 +20°C° 0 mm 5 mps 740 mmHg 93%
    04:00 +20°C° 0 mm 5 mps 740 mmHg 93%
    05:00 +19°C° 0 mm 5 mps 741 mmHg 94%
    06:00 +20°C° 0 mm 5 mps 741 mmHg 92%
    07:00 +21°C° 0 mm 5 mps 741 mmHg 90%
    08:00 +21°C° 0 mm 6 mps 741 mmHg 88%
    09:00 +22°C° 0 mm 6 mps 741 mmHg 85%
    10:00 +22°C° 0 mm 6 mps 742 mmHg 82%
    11:00 +23°C° 0 mm 6 mps 742 mmHg 80%
    12:00 +24°C° 0 mm 6 mps 742 mmHg 77%
    13:00 +24°C° 0 mm 6 mps 742 mmHg 74%
    14:00 +26°C° 0 mm 6 mps 742 mmHg 71%
    15:00 +26°C° 0 mm 6 mps 742 mmHg 69%
    16:00 +27°C° 0 mm 6 mps 742 mmHg 68%
    17:00 +27°C° 0 mm 6 mps 742 mmHg 67%
    18:00 +25°C° 0 mm 5 mps 742 mmHg 73%
    19:00 +23°C° 0 mm 4 mps 742 mmHg 78%
    20:00 +22°C° 0 mm 3 mps 742 mmHg 84%
    21:00 +21°C° 0 mm 3 mps 742 mmHg 87%
    22:00 +20°C° 0 mm 3 mps 743 mmHg 89%
    23:00 +19°C° 0 mm 2 mps 743 mmHg 92%

    21 July, Saturday

    Time Temperature Precipitation Wind Pressure Humidity
    00:00 +19°C° 0 mm 2 mps 743 mmHg 93%
    01:00 +19°C° 0 mm 2 mps 743 mmHg 94%
    02:00 +18°C° 0 mm 2 mps 742 mmHg 95%
    03:00 +18°C° 0 mm 2 mps 742 mmHg 95%
    04:00 +18°C° 0 mm 2 mps 742 mmHg 95%
    05:00 +18°C° 0 mm 2 mps 742 mmHg 96%
    06:00 +19°C° 0 mm 3 mps 742 mmHg 90%
    07:00 +21°C° 0 mm 3 mps 742 mmHg 83%
    08:00 +24°C° 0 mm 3 mps 743 mmHg 77%
    09:00 +25°C° 0 mm 3 mps 742 mmHg 71%
    10:00 +27°C° 0 mm 4 mps 742 mmHg 65%
    11:00 +28°C° 0 mm 4 mps 742 mmHg 58%
    12:00 +29°C° 0 mm 4 mps 742 mmHg 54%
    13:00 +29°C° 0 mm 4 mps 742 mmHg 51%
    14:00 +30°C° 0 mm 4 mps 741 mmHg 47%
    15:00 +30°C° 0 mm 3 mps 741 mmHg 47%
    16:00 +30°C° 0 mm 3 mps 741 mmHg 47%
    17:00 +29°C° 0 mm 3 mps 741 mmHg 48%
    18:00 +28°C° 0 mm 2 mps 741 mmHg 53%
    19:00 +26°C° 0 mm 2 mps 741 mmHg 58%
    20:00 +24°C° 0 mm 1 mps 741 mmHg 63%
    21:00 +23°C° 0 mm 1 mps 741 mmHg 65%
    22:00 +22°C° 0 mm 1 mps 741 mmHg 67%
    23:00 +22°C° 0 mm 1 mps 741 mmHg 69%
    Show more